Flight Track Log - Related Links

Times and Time Zones

All times are in EDT time to prevent confusion due to time zone crossing. See the DAL1562 flight status page for this flight to view local times or setup timezone preferences in your user account.

Time Position Orientation Groundspeed Altitude Reporting Facility
EDT Latitude Longitude Course Direction KTS MPH feet Rate Location/Type
Tue 04:50:25 PM 39.8667 -75.2833 244° Southwest 171 197 600  Level Philadelphia TRACON
Tue 04:50:59 PM 39.8547 -75.3150 244° Southwest 189 217 1,800 2,111 Climbing FAA TRACON SMA TRACON (SMA)
Tue 04:51:19 PM 39.8525 -75.3392 263° West 221 254 2,500 2,850 Climbing FAA TRACON SMA TRACON (SMA)
Tue 04:51:39 PM 39.8492 -75.3692 262° West 252 290 3,700 4,050 Climbing FAA TRACON SMA TRACON (SMA)
Tue 04:51:59 PM 39.8508 -75.3964 275° West 242 278 5,200 4,200 Climbing FAA TRACON SMA TRACON (SMA)
Tue 04:52:19 PM 39.8531 -75.4303 275° West 243 280 6,500 3,300 Climbing FAA TRACON SMA TRACON (SMA)
Tue 04:52:39 PM 39.8542 -75.4586 273° West 254 292 7,400 3,150 Climbing FAA TRACON SMA TRACON (SMA)
Tue 04:52:59 PM 39.8558 -75.4889 274° West 262 302 8,600 3,450 Climbing FAA TRACON SMA TRACON (SMA)
Tue 04:53:19 PM 39.8578 -75.5253 274° West 263 303 9,700 2,100 Climbing FAA TRACON SMA TRACON (SMA)
Tue 04:53:39 PM 39.8597 -75.5558 275° West 271 312 10,000 450 Climbing FAA TRACON SMA TRACON (SMA)
Tue 04:53:59 PM 39.8625 -75.5917 276° West 319 367 10,000  Level FAA TRACON SMA TRACON (SMA)
Tue 04:54:19 PM 39.8669 -75.6386 277° West 346 398 10,000 150 Level FAA TRACON SMA TRACON (SMA)
Tue 04:54:39 PM 39.8711 -75.6769 278° West 351 404 10,100 300 Climbing FAA TRACON SMA TRACON (SMA)
Tue 04:54:59 PM 39.8767 -75.7147 281° West 348 400 10,200 1,050 Climbing FAA TRACON SMA TRACON (SMA)
Tue 04:55:19 PM 39.8950 -75.7586 299° West 363 418 10,800 2,550 Climbing FAA TRACON SMA TRACON (SMA)
Tue 04:55:39 PM 39.9108 -75.7931 301° West 361 415 11,900 3,150 Climbing FAA TRACON SMA TRACON (SMA)
Tue 04:55:59 PM 39.9231 -75.8292 294° West 354 407 12,900 2,850 Climbing FAA TRACON SMA TRACON (SMA)
Tue 04:56:19 PM 39.9306 -75.8772 282° West 366 421 13,800 2,550 Climbing FAA TRACON SMA TRACON (SMA)
Tue 04:56:39 PM 39.9308 -75.9169 271° West 366 421 14,600 2,550 Climbing FAA TRACON SMA TRACON (SMA)
Tue 04:56:59 PM 39.9306 -75.9572 269° West 364 419 15,500 2,700 Climbing FAA TRACON SMA TRACON (SMA)
Tue 04:57:19 PM 39.9314 -76.0094 271° West 365 420 16,400 2,400 Climbing FAA TRACON SMA TRACON (SMA)
Tue 04:57:39 PM 39.9319 -76.0508 271° West 369 425 17,100 1,950 Climbing FAA TRACON SMA TRACON (SMA)
Tue 04:57:59 PM 39.9303 -76.0919 267° West 373 429 17,700 1,350 Climbing FAA TRACON SMA TRACON (SMA)
Tue 04:58:19 PM 39.9311 -76.1256 272° West 377 434 18,000 2,369 Climbing FAA TRACON SMA TRACON (SMA)
Tue 05:00:36 PM 39.9275 -76.4314 269° West 379 436 23,900 2,162 Climbing New York Center
Tue 05:01:36 PM 39.9314 -76.5697 272° West 379 436 25,100 1,385 Climbing New York Center
Tue 05:02:33 PM 39.9278 -76.7264 268° West 386 444 26,600 1,576 Climbing New York Center
Tue 05:03:34 PM 39.9547 -76.8506 286° West 386 444 28,200 1,131 Climbing New York Center
Tue 05:04:35 PM 39.9828 -76.9942 284° West 392 451 28,900 843 Climbing New York Center
Tue 05:05:35 PM 40.0081 -77.1453 282° West 412 474 29,900 550 Climbing New York Center
Tue 05:06:35 PM 40.0372 -77.2944 284° West 424 488 30,000 33 Climbing New York Center
Tue 05:08:39 PM 40.0975 -77.6219 284° West 428 493 30,000  Level Cleveland Center
Tue 05:09:39 PM 40.1242 -77.7700 283° West 428 493 30,000  Level Cleveland Center
Tue 05:10:39 PM 40.1381 -77.9189 277° West 428 493 30,000 -550 Level Cleveland Center
Tue 05:11:39 PM 40.1519 -78.0622 277° West 416 479 28,900 -1,000 Descending Cleveland Center
Tue 05:12:39 PM 40.1819 -78.2081 285° West 416 479 28,000 -450 Descending Cleveland Center
Tue 05:13:39 PM 40.2122 -78.3536 285° West 410 472 28,000  Level Cleveland Center
Tue 05:14:39 PM 40.2400 -78.4969 284° West 410 472 28,000  Level Cleveland Center
Tue 05:15:39 PM 40.2675 -78.6403 284° West 410 472 28,000  Level Cleveland Center
Tue 05:16:39 PM 40.2969 -78.7811 285° West 410 472 28,000  Level Cleveland Center
Tue 05:17:39 PM 40.3261 -78.9247 285° West 410 472 28,000  Level Cleveland Center
Tue 05:18:39 PM 40.3531 -79.0656 284° West 410 472 28,000  Level Cleveland Center
Tue 05:19:39 PM 40.3842 -79.2067 286° West 410 472 28,000  Level Cleveland Center
Tue 05:20:39 PM 40.4147 -79.3450 286° West 410 472 28,000  Level Cleveland Center
Tue 05:21:39 PM 40.4433 -79.4864 285° West 410 472 28,000  Level Cleveland Center
Tue 05:22:39 PM 40.4697 -79.6306 284° West 410 472 28,000  Level Cleveland Center
Tue 05:23:39 PM 40.4978 -79.7694 285° West 410 472 28,000  Level Cleveland Center
Tue 05:24:39 PM 40.5239 -79.9111 284° West 405 466 28,000  Level Cleveland Center
Tue 05:25:39 PM 40.5497 -80.0583 283° West 405 466 28,000  Level Cleveland Center
Tue 05:26:39 PM 40.5981 -80.1919 296° West 405 466 28,000  Level Cleveland Center
Tue 05:27:39 PM 40.6486 -80.3286 296° West 405 466 28,000  Level Cleveland Center
Tue 05:28:39 PM 40.6967 -80.4461 298° West 411 473 28,000  Level Cleveland Center
Tue 05:29:39 PM 40.7508 -80.5775 299° West 411 473 28,000  Level Cleveland Center
Tue 05:30:39 PM 40.8114 -80.6875 306° West 411 473 28,000  Level Cleveland Center
Tue 05:31:39 PM 40.8944 -80.8139 311° West 411 473 28,000  Level Cleveland Center
Tue 05:32:39 PM 40.9567 -80.9378 304° West 411 473 28,000  Level Cleveland Center
Tue 05:33:39 PM 41.0144 -81.0867 297° West 411 473 28,000  Level Cleveland Center
Tue 05:34:39 PM 41.0703 -81.2139 300° West 406 467 28,000  Level Cleveland Center
Tue 05:35:39 PM 41.1256 -81.3467 299° West 406 467 28,000  Level Cleveland Center
Tue 05:36:39 PM 41.1769 -81.4631 300° West 411 473 28,000  Level Cleveland Center
Tue 05:37:39 PM 41.2364 -81.5964 301° West 411 473 28,000  Level Cleveland Center
Tue 05:38:39 PM 41.2914 -81.7300 299° West 416 479 28,000  Level Cleveland Center
Tue 05:39:39 PM 41.3461 -81.8636 299° West 416 479 28,000 -450 Level Cleveland Center
Tue 05:40:39 PM 41.4047 -82.0144 297° West 416 479 27,100 -1,050 Descending Cleveland Center
Tue 05:41:39 PM 41.4614 -82.1486 299° West 421 484 25,900 -2,150 Descending Cleveland Center
Tue 05:42:39 PM 41.5181 -82.2775 300° West 408 470 22,800 -3,000 Descending Cleveland Center
Tue 05:43:39 PM 41.5722 -82.4094 299° West 402 463 19,900 -2,800 Descending Cleveland Center
Tue 05:44:09 PM 41.6003 -82.4742 300° West 392 451 18,600 -2,239 Descending Cleveland Center
Tue 05:44:46 PM 41.6286 -82.5389 300° West 372 428 17,400 -2,467 Descending Cleveland Center
Tue 05:45:39 PM 41.6683 -82.6428 297° West 363 418 14,900 -2,708 Descending Cleveland Center
Tue 05:46:39 PM 41.7164 -82.7558 300° West 357 411 12,300 -2,320 Descending Cleveland Center
Tue 05:46:54 PM 41.7303 -82.7839 304° West 342 394 12,000 -300 Descending Cleveland Center
Tue 05:47:39 PM 41.7792 -82.8497 315° West 352 405 12,000  Level Cleveland Center
Tue 05:47:55 PM 41.7994 -82.8756 316° Northwest 343 395 12,000  Level Cleveland Center
Tue 05:48:39 PM 41.8503 -82.9358 319° Northwest 347 399 12,000  Level Cleveland Center
Tue 05:48:56 PM 41.8747 -82.9647 319° Northwest 347 399 12,000  Level Cleveland Center
Tue 05:49:39 PM 41.9217 -83.0194 319° Northwest 342 394 12,000  Level Cleveland Center
Tue 05:50:03 PM 41.9561 -83.0597 319° Northwest 346 398 12,000  Level Cleveland Center
Tue 05:50:39 PM 41.9947 -83.1033 320° Northwest 342 394 12,000  Level Cleveland Center
Tue 05:50:58 PM 42.0211 -83.1378 316° Northwest 345 397 12,000  Level Cleveland Center
Tue 05:51:39 PM 42.0597 -83.1842 318° Northwest 335 386 12,000  Level Cleveland Center
Tue 05:51:59 PM 42.0800 -83.2075 320° Northwest 252 290 12,000  Level Cleveland Center
Tue 05:52:39 PM 42.1044 -83.2364 319° Northwest 278 320 12,000 -218 Level Cleveland Center
Tue 05:52:54 PM 42.1314 -83.2403 354° North 233 268 11,800 -1,500 Descending Cleveland Center
Tue 05:53:39 PM 42.1775 -83.2339 North 222 255 10,500 -1,839 Descending Cleveland Center
Tue 05:53:56 PM 42.2028 -83.2153 29° Northeast 272 313 9,900 -1,429 Descending Cleveland Center
Tue 05:55:03 PM 42.2686 -83.1619 31° Northeast 248 285 8,500 -891 Descending Cleveland Center
Tue 05:56:04 PM 42.3281 -83.1108 32° Northeast 244 281 8,000 -689 Descending Cleveland Center
Tue 05:57:05 PM 42.3850 -83.0850 19° North 202 232 7,100 -1,190 Descending Cleveland Center
Tue 05:58:00 PM 42.4006 -83.1419 290° West 184 212 5,700 -1,574 Descending Cleveland Center
Tue 05:59:07 PM 42.3697 -83.2139 240° Southwest 194 223 3,900 -1,266 Descending Cleveland Center
Tue 06:00:08 PM 42.3269 -83.2569 217° Southwest 176 203 3,000 -885 Descending Cleveland Center

Login

Don't have an account? Register now (free) for customized features, flight alerts, and more!